This is the latest recevied weather packets stored in our database for station/object KB1WCR. If no packets are shown the sender has not sent any weather packets the latest 10 day(s).
| Time | Temp. | Humidity | Pressure | Rain* | Wind** | Luminosity | Snow |
|---|---|---|---|---|---|---|---|
| 1778039696 | 13.89° C | 83% | 1008.2 hPa | 0 mm | - | 0 W/m² | - |
| 1778039392 | 13.89° C | 82% | 1008.2 hPa | 0 mm | - | 0 W/m² | - |
| 1778039090 | 13.89° C | 82% | 1008 hPa | 0 mm | - | 0 W/m² | - |
| 1778038787 | 14.44° C | 83% | 1007.9 hPa | 0 mm | - | 0 W/m² | - |
| 1778038484 | 14.44° C | 81% | 1007.9 hPa | 0 mm | - | 0 W/m² | - |
| 1778038180 | 14.44° C | 82% | 1008 hPa | 0 mm | - | 0 W/m² | - |
| 1778037878 | 14.44° C | 82% | 1007.9 hPa | 0 mm | - | 0 W/m² | - |
| 1778037574 | 13.89° C | 83% | 1007.8 hPa | 0 mm | - | 0 W/m² | - |
| 1778037271 | 13.89° C | 84% | 1007.9 hPa | 0 mm | - | 0 W/m² | - |
| 1778036969 | 14.44° C | 84% | 1007.8 hPa | 0 mm | - | 0 W/m² | - |
| 1778036667 | 14.44° C | 84% | 1007.9 hPa | 0 mm | - | 0 W/m² | - |
| 1778036363 | 14.44° C | 83% | 1007.7 hPa | 0 mm | - | 0 W/m² | - |
| 1778036061 | 15° C | 82% | 1007.8 hPa | 0 mm | - | 0 W/m² | - |
| 1778035757 | 15° C | 81% | 1007.7 hPa | 0 mm | - | 0 W/m² | - |
| 1778035454 | 15.56° C | 80% | 1007.9 hPa | 0 mm | - | 0 W/m² | - |
| 1778035150 | 15.56° C | 78% | 1008.1 hPa | 0 mm | - | 0 W/m² | - |
| 1778034847 | 16.11° C | 77% | 1008 hPa | 0 mm | - | 0 W/m² | - |
| 1778034544 | 16.11° C | 77% | 1008.1 hPa | 0 mm | - | 0 W/m² | - |
| 1778034241 | 16.11° C | 77% | 1008.2 hPa | 0 mm | - | 0 W/m² | - |
| 1778033939 | 16.11° C | 76% | 1008 hPa | 0 mm | - | 0 W/m² | - |
| 1778033636 | 16.67° C | 76% | 1008.4 hPa | 0 mm | - | 0 W/m² | - |
| 1778033333 | 16.67° C | 77% | 1008.4 hPa | 0 mm | - | 0 W/m² | - |
| 1778033031 | 16.67° C | 76% | 1008 hPa | 0 mm | - | 0 W/m² | - |
| 1778032728 | 17.22° C | 75% | 1007.9 hPa | 0 mm | - | 0 W/m² | - |
| 1778032425 | 16.67° C | 74% | 1008.2 hPa | 0 mm | - | 0 W/m² | - |
* Rain latest hour (hover to see other rain measurements)
** Current wind speed in m/s (hover to see current wind gust speed)